Location: Berg
(48.4333°N, 13.9167°E)
Time: 05:10:08
(UTC+00:00)

ATLAS CENTAUR R/B - Pass Details

Date: 24 January 2021
Orbit: 475 x 670 km, 64.7° (Epoch: 06 March)

Event Time Altitude Azimuth Distance (km) Brightness Sun altitude
Rises 05:57:18 0° 241° (WSW) 2,534 4.3 -7.7°
Reaches altitude 10° 05:59:35 10° 251° (WSW) 1,648 3.3 -7.4°
Maximum altitude 06:02:56 34° 318° (NW) 807 1.7 -6.8°
Drops below altitude 10° 06:06:19 10° 25° (NNE) 1,660 3.8 -6.3°
Sets 06:08:37 0° 34° (NE) 2,556 4.9 -6.0°
